Temp
-17 -18 -18 -18 -19 -19 -20 -20 -20 -21 -22 -22 -22 -23 -23 -23 -23 -23 -24 -24 -24 -24 -24 -24 -24 -24 -24 -24 -24 -24 -24 -24 -24 -24 -24 -24 -23 -23 -23 -23 -24 -24 -23 -23 -24 -23 -22 -23 -23 -23 -23 -23 -23 -23
-18 -19 -19 -19 -19 -20 -21 -21 -21 -22 -22 -23 -23 -23 -23 -23 -23 -23 -23 -24 -25 -25 -25 -25 -25 -25 -25 -25 -24 -24 -24 -24 -24 -25 -24 -24 -24 -24 -24 -24 -24 -24 -25 -25 -24 -24 -24 -24 -24 -24 -24 -24 -24 -24
-19 -19 -20 -19 -20 -20 -21 -21 -22 -22 -22 -22 -23 -23 -23 -22 -23 -23 -24 -25 -25 -25 -25 -25 -26 -26 -25 -25 -25 -25 -25 -25 -24 -24 -24 -25 -25 -24 -24 -24 -24 -24 -24 -24 -24 -24 -24 -24 -24 -24 -24 -24 -24 -24
-20 -20 -20 -20 -20 -21 -22 -22 -22 -22 -22 -23 -23 -23 -23 -23 -23 -23 -25 -25 -25 -25 -25 -25 -25 -26 -26 -26 -26 -25 -25 -25 -25 -25 -25 -25 -25 -25 -25 -25 -25 -25 -25 -25 -24 -24 -24 -24 -24 -25 -25 -25 -25 -25
-20 -20 -20 -20 -21 -21 -22 -22 -22 -22 -23 -23 -23 -23 -23 -23 -23 -25 -25 -24 -24 -24 -24 -25 -25 -26 -26 -26 -26 -26 -26 -26 -26 -26 -25 -25 -25 -25 -25 -25 -25 -25 -25 -25 -25 -25 -25 -25 -25 -25 -25 -25 -25 -25
-21 -21 -21 -21 -21 -22 -22 -22 -22 -23 -23 -23 -23 -22 -23 -24 -24 -25 -25 -25 -25 -25 -24 -25 -25 -26 -26 -27 -27 -27 -27 -27 -26 -26 -26 -26 -26 -26 -26 -25 -25 -26 -26 -26 -26 -26 -25 -25 -25 -26 -26 -25 -25 -25
-21 -21 -21 -21 -22 -22 -22 -22 -22 -23 -22 -23 -23 -23 -23 -25 -26 -26 -25 -25 -25 -25 -25 -25 -26 -26 -27 -27 -27 -28 -27 -27 -27 -27 -27 -27 -27 -27 -26 -26 -26 -27 -27 -27 -27 -27 -27 -27 -27 -27 -26 -26 -27 -27
-21 -21 -21 -22 -22 -22 -22 -23 -23 -23 -23 -23 -23 -23 -24 -26 -27 -26 -26 -26 -26 -26 -26 -26 -27 -27 -27 -27 -28 -28 -28 -28 -28 -28 -28 -28 -28 -28 -28 -27 -27 -27 -28 -28 -28 -28 -28 -28 -28 -28 -28 -28 -28 -28
-22 -22 -22 -22 -22 -23 -23 -23 -23 -23 -23 -23 -23 -24 -25 -27 -27 -27 -27 -27 -27 -27 -27 -27 -27 -28 -28 -28 -28 -28 -28 -28 -28 -28 -28 -28 -28 -29 -29 -29 -29 -29 -29 -29 -29 -29 -29 -29 -29 -29 -29 -30 -30 -30
-22 -22 -22 -22 -23 -23 -23 -23 -23 -23 -23 -24 -24 -24 -25 -27 -28 -27 -27 -27 -28 -28 -28 -28 -28 -28 -28 -28 -29 -29 -29 -29 -29 -29 -30 -30 -30 -30 -30 -31 -31 -31 -31 -31 -32 -32 -32 -32 -32 -32 -32 -32 -32 -32
-23 -23 -23 -23 -24 -24 -23 -23 -23 -23 -24 -24 -24 -25 -26 -27 -28 -28 -28 -28 -28 -28 -28 -28 -29 -29 -29 -29 -29 -29 -29 -30 -30 -30 -30 -30 -31 -31 -32 -32 -32 -32 -32 -33 -33 -33 -33 -33 -33 -33 -33 -33 -33 -33
-23 -23 -23 -24 -24 -24 -24 -24 -24 -24 -24 -24 -25 -25 -26 -27 -28 -28 -28 -28 -28 -29 -29 -29 -29 -29 -29 -29 -30 -29 -30 -30 -30 -31 -31 -31 -32 -32 -32 -33 -33 -33 -33 -33 -33 -33 -33 -33 -34 -34 -34 -34 -34 -34
-23 -23 -24 -24 -24 -24 -24 -24 -24 -24 -25 -25 -25 -26 -27 -28 -28 -29 -29 -29 -29 -29 -30 -30 -30 -30 -30 -30 -30 -30 -30 -31 -31 -31 -32 -33 -33 -33 -34 -34 -34 -34 -34 -34 -35 -35 -35 -35 -35 -35 -35 -35 -35 -35
-23 -24 -24 -24 -24 -24 -24 -24 -24 -25 -25 -25 -25 -27 -28 -29 -29 -29 -30 -30 -30 -30 -30 -30 -31 -31 -31 -31 -31 -32 -32 -32 -32 -32 -33 -34 -34 -35 -35 -35 -35 -35 -35 -36 -36 -36 -36 -36 -36 -36 -36 -36 -36 -36
-24 -24 -25 -25 -25 -24 -24 -25 -25 -25 -25 -25 -26 -27 -29 -29 -30 -30 -30 -30 -30 -31 -31 -31 -31 -32 -32 -32 -32 -32 -33 -33 -34 -34 -35 -35 -35 -35 -35 -36 -36 -36 -36 -36 -37 -37 -37 -37 -37 -37 -37 -37 -37 -37
-24 -25 -25 -25 -25 -25 -25 -25 -25 -25 -26 -26 -27 -28 -29 -30 -30 -30 -30 -31 -31 -31 -31 -31 -32 -32 -32 -33 -33 -33 -34 -34 -35 -35 -35 -35 -36 -36 -36 -36 -37 -37 -37 -37 -37 -37 -37 -37 -37 -37 -38 -38 -38 -38
-25 -25 -25 -25 -25 -25 -26 -26 -26 -26 -26 -27 -28 -29 -30 -31 -31 -31 -31 -31 -31 -31 -32 -32 -32 -33 -33 -33 -33 -34 -34 -35 -35 -35 -36 -36 -36 -37 -37 -37 -37 -38 -38 -38 -38 -38 -38 -38 -38 -39 -39 -39 -39 -39
-25 -26 -26 -26 -26 -26 -26 -26 -26 -27 -27 -28 -29 -30 -31 -31 -31 -31 -31 -32 -32 -32 -32 -33 -33 -33 -34 -33 -34 -35 -35 -36 -36 -36 -36 -37 -37 -38 -38 -38 -38 -38 -39 -39 -39 -39 -39 -39 -39 -40 -40 -40 -40 -40
-26 -26 -26 -26 -27 -26 -27 -27 -27 -27 -28 -29 -30 -30 -31 -32 -32 -32 -32 -32 -32 -33 -33 -33 -33 -34 -34 -35 -35 -35 -36 -36 -36 -37 -37 -38 -38 -38 -39 -39 -39 -39 -39 -39 -40 -40 -40 -40 -40 -41 -41 -41 -41 -40
-26 -26 -26 -27 -27 -27 -27 -27 -28 -28 -29 -29 -30 -31 -32 -32 -32 -32 -32 -33 -33 -33 -33 -34 -34 -34 -35 -35 -36 -36 -36 -36 -37 -37 -38 -38 -39 -39 -39 -40 -40 -40 -40 -40 -41 -41 -41 -41 -41 -41 -41 -41 -41 -41
-27 -27 -27 -27 -27 -27 -28 -28 -28 -29 -30 -30 -31 -31 -32 -32 -32 -32 -33 -33 -34 -34 -34 -34 -34 -35 -35 -36 -36 -36 -36 -37 -37 -38 -38 -40 -40 -40 -40 -40 -41 -41 -41 -41 -41 -41 -41 -42 -42 -42 -42 -41 -41 -41
-27 -27 -27 -27 -27 -28 -28 -28 -29 -30 -30 -30 -31 -31 -32 -32 -32 -33 -33 -33 -34 -34 -34 -34 -35 -36 -36 -36 -36 -37 -37 -37 -38 -39 -39 -40 -41 -41 -41 -41 -41 -42 -42 -42 -42 -42 -42 -42 -42 -42 -42 -42 -42 -42
-27 -27 -28 -28 -28 -28 -29 -29 -30 -30 -30 -30 -31 -31 -32 -32 -32 -33 -33 -34 -34 -34 -35 -36 -36 -36 -36 -36 -36 -37 -37 -38 -39 -40 -40 -41 -41 -41 -42 -42 -42 -42 -42 -42 -42 -42 -43 -43 -43 -43 -43 -43 -43 -43
-27 -28 -28 -28 -28 -29 -29 -29 -30 -30 -31 -31 -32 -32 -32 -33 -33 -33 -34 -34 -34 -35 -36 -36 -36 -36 -37 -37 -37 -37 -38 -39 -39 -40 -41 -41 -42 -42 -42 -42 -42 -42 -42 -43 -43 -43 -43 -43 -43 -42 -42 -42 -43 -43
-28 -28 -28 -28 -29 -29 -29 -30 -30 -31 -31 -32 -32 -33 -33 -34 -34 -34 -34 -34 -35 -36 -36 -36 -36 -37 -37 -37 -38 -38 -39 -39 -40 -41 -41 -42 -42 -43 -43 -43 -43 -43 -43 -42 -42 -43 -43 -43 -43 -43 -43 -43 -43 -42
-28 -28 -29 -29 -29 -30 -30 -31 -31 -31 -32 -33 -33 -34 -34 -34 -34 -35 -35 -35 -36 -36 -36 -37 -37 -37 -38 -38 -38 -39 -39 -40 -40 -41 -42 -42 -42 -43 -43 -43 -43 -43 -43 -43 -43 -43 -43 -43 -43 -43 -43 -43 -42 -42
-28 -29 -29 -30 -30 -30 -31 -31 -32 -32 -33 -33 -34 -34 -34 -35 -35 -35 -36 -36 -37 -37 -37 -37 -38 -38 -39 -39 -39 -40 -40 -40 -41 -41 -42 -42 -42 -43 -43 -43 -43 -43 -43 -43 -43 -43 -43 -43 -43 -43 -43 -43 -43 -43
-29 -30 -30 -30 -31 -31 -31 -32 -32 -33 -34 -34 -34 -35 -35 -36 -36 -36 -37 -37 -37 -38 -38 -38 -39 -39 -40 -40 -40 -41 -41 -41 -42 -42 -42 -43 -43 -43 -43 -43 -43 -43 -43 -43 -43 -43 -43 -43 -43 -43 -43 -43 -42 -43
-30 -30 -30 -31 -31 -32 -32 -32 -33 -34 -34 -35 -35 -35 -35 -36 -36 -37 -37 -37 -38 -38 -38 -39 -39 -40 -40 -41 -41 -42 -42 -42 -43 -43 -43 -43 -44 -44 -44 -43 -43 -43 -43 -43 -44 -44 -44 -43 -43 -43 -43 -43 -43 -43
-30 -31 -31 -32 -32 -32 -33 -33 -34 -34 -35 -35 -35 -36 -36 -37 -37 -37 -38 -38 -38 -39 -39 -40 -40 -41 -41 -42 -42 -42 -42 -43 -43 -43 -43 -43 -43 -43 -43 -43 -43 -43 -43 -43 -44 -44 -44 -44 -44 -44 -44 -44 -44 -43
-31 -31 -32 -32 -32 -33 -34 -34 -34 -35 -35 -36 -36 -36 -37 -37 -37 -38 -38 -38 -39 -39 -40 -40 -41 -41 -42 -42 -42 -43 -43 -43 -43 -43 -43 -43 -43 -43 -43 -43 -43 -43 -44 -44 -44 -44 -44 -44 -45 -45 -45 -45 -44 -44
-31 -32 -33 -33 -33 -34 -34 -35 -35 -35 -36 -36 -37 -37 -37 -37 -38 -38 -38 -39 -39 -40 -40 -41 -41 -42 -42 -42 -42 -42 -42 -43 -43 -43 -43 -43 -43 -43 -43 -43 -44 -44 -44 -44 -44 -45 -45 -45 -45 -45 -45 -45 -45 -45
-32 -33 -34 -34 -34 -34 -35 -35 -35 -35 -36 -36 -37 -37 -38 -38 -38 -38 -39 -39 -40 -40 -41 -41 -42 -42 -42 -42 -42 -42 -42 -43 -43 -43 -43 -43 -43 -44 -44 -44 -44 -44 -45 -45 -45 -45 -45 -45 -45 -45 -45 -45 -45 -45
Height
5635 5632 5628 5626 5621 5617 5613 5607 5602 5596 5590 5585 5579 5573 5566 5559 5551 5545 5539 5533 5529 5525 5525 5523 5521 5519 5518 5517 5516 5517 5515 5515 5513 5513 5514 5515 5513 5515 5515 5517 5519 5520 5520 5522 5522 5521 5524 5530 5531 5532 5535 5535 5538 5539
5629 5626 5623 5620 5616 5612 5608 5602 5596 5590 5583 5577 5571 5564 5557 5548 5538 5529 5524 5517 5512 5509 5509 5509 5509 5508 5507 5506 5506 5506 5506 5506 5506 5506 5506 5505 5506 5507 5508 5509 5511 5511 5512 5512 5514 5514 5514 5515 5517 5520 5522 5524 5526 5528
5622 5620 5618 5615 5610 5606 5601 5595 5590 5584 5577 5570 5563 5554 5545 5535 5526 5516 5507 5501 5495 5492 5491 5493 5494 5494 5494 5494 5494 5495 5495 5495 5496 5496 5496 5496 5496 5498 5498 5500 5500 5501 5501 5502 5503 5504 5504 5504 5505 5507 5509 5510 5511 5513
5617 5614 5612 5608 5603 5598 5594 5588 5583 5577 5569 5562 5553 5544 5533 5523 5514 5503 5496 5490 5485 5481 5478 5478 5476 5477 5479 5481 5482 5482 5483 5484 5484 5485 5485 5486 5487 5487 5487 5488 5489 5491 5490 5490 5490 5491 5492 5492 5492 5493 5494 5495 5497 5498
5611 5608 5606 5602 5597 5592 5587 5582 5576 5570 5562 5553 5544 5533 5522 5512 5502 5493 5486 5480 5475 5472 5467 5465 5463 5464 5465 5467 5469 5471 5472 5472 5473 5473 5473 5474 5474 5474 5474 5474 5476 5476 5477 5477 5477 5478 5478 5479 5478 5479 5479 5479 5480 5481
5606 5603 5600 5595 5589 5584 5580 5574 5568 5562 5553 5544 5533 5522 5511 5500 5492 5485 5479 5473 5467 5462 5459 5455 5453 5452 5453 5454 5456 5457 5459 5460 5461 5461 5462 5461 5461 5460 5459 5460 5462 5461 5460 5460 5461 5461 5461 5462 5462 5462 5462 5461 5461 5461
5600 5597 5593 5588 5582 5578 5573 5567 5561 5554 5545 5534 5523 5512 5501 5492 5485 5480 5474 5468 5463 5458 5453 5450 5446 5445 5443 5443 5444 5445 5446 5447 5448 5448 5448 5448 5447 5446 5445 5446 5446 5445 5444 5443 5443 5443 5443 5443 5443 5443 5443 5443 5442 5442
5594 5591 5587 5581 5575 5571 5566 5560 5553 5546 5536 5525 5514 5503 5493 5486 5481 5475 5469 5465 5460 5455 5451 5447 5443 5441 5438 5436 5435 5435 5435 5434 5435 5434 5434 5433 5432 5430 5430 5432 5430 5427 5426 5426 5426 5425 5424 5424 5424 5424 5423 5423 5423 5422
5588 5585 5581 5575 5569 5564 5558 5553 5546 5537 5527 5516 5506 5497 5489 5483 5478 5472 5466 5462 5457 5455 5448 5444 5441 5438 5434 5431 5429 5428 5426 5424 5423 5421 5419 5418 5417 5416 5414 5413 5412 5410 5408 5407 5407 5406 5405 5405 5404 5404 5403 5403 5402 5402
5581 5577 5573 5567 5563 5557 5552 5546 5538 5529 5519 5509 5500 5493 5485 5480 5474 5469 5463 5458 5454 5450 5445 5440 5436 5433 5431 5426 5423 5421 5418 5415 5413 5413 5407 5406 5404 5402 5399 5396 5394 5393 5392 5391 5389 5389 5388 5387 5387 5386 5385 5384 5384 5383
5574 5570 5565 5560 5555 5551 5545 5538 5531 5521 5511 5502 5495 5488 5480 5475 5470 5465 5460 5455 5450 5445 5441 5437 5432 5428 5423 5420 5416 5412 5407 5404 5403 5402 5397 5395 5394 5390 5387 5384 5382 5380 5379 5377 5376 5374 5373 5372 5370 5369 5368 5366 5365 5364
5568 5563 5558 5554 5549 5543 5537 5530 5522 5513 5504 5498 5490 5481 5475 5470 5464 5461 5454 5450 5444 5439 5434 5429 5425 5420 5416 5412 5407 5403 5399 5395 5391 5389 5385 5382 5379 5375 5372 5370 5368 5366 5364 5362 5361 5359 5358 5356 5354 5352 5350 5348 5346 5344
5561 5556 5552 5547 5541 5534 5529 5522 5513 5505 5497 5489 5482 5475 5469 5464 5458 5453 5448 5443 5438 5433 5427 5422 5417 5412 5406 5402 5398 5393 5388 5385 5381 5376 5371 5367 5363 5360 5357 5355 5352 5350 5348 5346 5344 5342 5340 5338 5335 5333 5331 5328 5326 5324
5554 5550 5546 5540 5534 5528 5521 5513 5504 5496 5489 5482 5475 5467 5462 5455 5450 5445 5441 5436 5431 5425 5419 5413 5407 5403 5396 5391 5387 5381 5375 5370 5365 5362 5357 5353 5348 5345 5342 5339 5337 5334 5331 5329 5326 5324 5321 5318 5316 5313 5311 5308 5304 5302
5547 5543 5537 5531 5526 5520 5513 5504 5497 5489 5482 5474 5466 5460 5453 5447 5443 5438 5433 5427 5422 5416 5410 5404 5399 5394 5387 5381 5377 5370 5362 5356 5350 5346 5342 5338 5335 5332 5328 5325 5321 5318 5315 5312 5310 5306 5303 5300 5297 5293 5290 5287 5283 5280
5540 5536 5529 5524 5519 5512 5504 5496 5489 5481 5473 5466 5458 5451 5445 5440 5436 5430 5425 5419 5412 5406 5400 5393 5388 5381 5375 5370 5365 5358 5351 5345 5339 5334 5330 5325 5321 5318 5314 5310 5306 5302 5299 5295 5292 5288 5284 5281 5277 5274 5270 5267 5263 5260
5532 5527 5521 5516 5510 5503 5495 5488 5481 5473 5465 5458 5451 5443 5438 5433 5428 5422 5416 5409 5403 5396 5389 5382 5375 5369 5362 5355 5350 5343 5337 5332 5327 5322 5317 5312 5307 5303 5298 5293 5289 5285 5282 5278 5275 5271 5268 5265 5261 5258 5255 5252 5249 5246
5523 5518 5513 5507 5501 5494 5487 5479 5472 5465 5457 5449 5442 5435 5430 5424 5418 5411 5404 5398 5392 5385 5378 5371 5364 5359 5349 5342 5335 5329 5323 5317 5313 5309 5304 5298 5293 5288 5283 5279 5275 5271 5268 5265 5261 5258 5255 5253 5250 5248 5244 5241 5238 5235
5515 5511 5505 5498 5492 5486 5479 5471 5464 5457 5450 5442 5434 5427 5421 5414 5406 5400 5393 5386 5380 5373 5366 5359 5352 5344 5337 5329 5322 5316 5310 5304 5300 5294 5289 5284 5279 5274 5270 5266 5262 5259 5256 5253 5250 5248 5246 5243 5241 5238 5235 5232 5229 5225
5507 5502 5496 5490 5484 5477 5469 5462 5455 5448 5440 5433 5425 5418 5410 5403 5396 5389 5382 5375 5367 5360 5353 5345 5338 5329 5322 5315 5308 5302 5296 5290 5285 5280 5275 5270 5266 5262 5258 5255 5252 5249 5246 5243 5241 5238 5236 5233 5231 5228 5225 5222 5219 5216
5499 5493 5487 5481 5474 5467 5459 5451 5444 5437 5430 5423 5414 5406 5400 5393 5385 5378 5372 5364 5356 5347 5340 5332 5322 5314 5307 5301 5295 5289 5283 5277 5272 5267 5263 5259 5254 5251 5248 5245 5242 5239 5237 5234 5231 5229 5226 5224 5220 5217 5214 5210 5208 5206
5490 5484 5477 5471 5465 5457 5450 5442 5435 5428 5421 5414 5406 5397 5390 5383 5376 5368 5361 5352 5342 5334 5326 5316 5308 5301 5295 5288 5282 5276 5270 5264 5259 5254 5250 5247 5243 5240 5237 5235 5232 5229 5227 5224 5222 5219 5216 5212 5209 5205 5202 5199 5195 5192
5479 5473 5467 5461 5454 5448 5442 5431 5424 5416 5407 5399 5392 5384 5376 5368 5361 5355 5346 5337 5327 5319 5310 5302 5294 5289 5283 5276 5269 5264 5258 5252 5247 5243 5239 5236 5233 5230 5227 5225 5221 5219 5216 5213 5211 5208 5205 5201 5197 5194 5191 5188 5184 5181
5467 5461 5456 5450 5444 5437 5429 5421 5412 5403 5395 5386 5377 5369 5361 5354 5347 5340 5332 5323 5314 5304 5296 5289 5284 5277 5271 5264 5258 5251 5245 5239 5235 5231 5228 5225 5222 5220 5217 5214 5211 5208 5205 5202 5199 5196 5193 5190 5186 5182 5178 5176 5173 5170
5456 5451 5445 5438 5431 5423 5416 5408 5400 5391 5382 5373 5364 5356 5346 5337 5331 5324 5318 5308 5298 5290 5284 5278 5271 5264 5257 5251 5245 5239 5234 5229 5225 5221 5217 5214 5212 5209 5206 5203 5200 5196 5192 5189 5187 5183 5181 5177 5173 5169 5166 5162 5159 5158
5444 5439 5432 5425 5417 5410 5400 5392 5384 5376 5367 5358 5349 5339 5330 5323 5317 5308 5300 5292 5285 5278 5271 5265 5258 5252 5245 5238 5233 5228 5223 5218 5215 5211 5206 5204 5201 5198 5195 5192 5189 5186 5180 5178 5174 5171 5168 5165 5162 5158 5153 5149 5146 5144
5433 5426 5419 5411 5402 5394 5386 5378 5369 5361 5351 5343 5336 5327 5317 5309 5301 5294 5284 5277 5270 5263 5257 5251 5244 5238 5233 5227 5222 5217 5213 5208 5205 5202 5197 5193 5190 5187 5184 5181 5179 5176 5171 5167 5164 5160 5158 5155 5150 5145 5140 5137 5134 5131
5419 5412 5404 5396 5387 5379 5370 5362 5353 5344 5335 5327 5319 5311 5301 5293 5286 5278 5272 5265 5259 5252 5246 5239 5233 5226 5221 5216 5211 5207 5202 5198 5195 5191 5188 5183 5179 5175 5172 5169 5166 5163 5159 5156 5152 5149 5144 5140 5135 5131 5127 5124 5121 5118
5406 5397 5390 5382 5373 5365 5355 5347 5339 5332 5323 5314 5306 5297 5289 5280 5272 5265 5259 5253 5247 5240 5234 5227 5221 5215 5210 5205 5200 5195 5191 5187 5184 5180 5177 5173 5168 5164 5160 5157 5153 5150 5146 5143 5139 5134 5129 5124 5120 5116 5113 5110 5107 5105
5389 5381 5373 5365 5357 5348 5342 5332 5323 5315 5306 5297 5289 5281 5274 5267 5260 5253 5247 5241 5235 5228 5222 5216 5210 5204 5199 5194 5189 5184 5180 5176 5172 5168 5165 5161 5157 5152 5148 5145 5142 5138 5134 5130 5126 5121 5116 5112 5109 5105 5101 5098 5095 5093
5372 5365 5357 5348 5340 5333 5323 5315 5307 5299 5290 5281 5272 5265 5259 5253 5247 5241 5235 5228 5222 5217 5211 5205 5199 5193 5188 5183 5179 5174 5169 5164 5160 5156 5153 5150 5146 5141 5137 5133 5130 5126 5122 5118 5114 5110 5107 5103 5098 5095 5091 5088 5084 5081
5356 5349 5338 5330 5323 5315 5306 5298 5290 5282 5274 5265 5259 5252 5245 5239 5233 5228 5221 5216 5210 5205 5199 5193 5187 5181 5176 5172 5167 5163 5160 5155 5151 5146 5141 5137 5133 5129 5126 5123 5120 5116 5112 5108 5105 5102 5099 5095 5091 5088 5084 5080 5077 5073
5338 5330 5320 5311 5304 5296 5288 5279 5272 5266 5261 5253 5245 5238 5231 5225 5220 5214 5208 5203 5198 5192 5187 5181 5175 5170 5165 5160 5157 5153 5148 5143 5138 5135 5131 5127 5124 5120 5117 5115 5113 5109 5106 5103 5100 5096 5093 5089 5086 5082 5078 5074 5070 5067
Wind_Speed
21 21 23 27 30 30 28 30 33 36 38 43 46 48 52 55 54 50 46 43 43 41 36 34 33 29 29 29 29 27 28 24 23 26 28 28 31 31 33 30 25 27 32 31 31 38 41 36 34 36 36 35 32 32
19 20 24 28 30 29 30 31 35 39 42 45 47 52 57 58 53 54 49 47 47 47 43 39 36 35 32 31 32 32 32 31 32 30 27 25 29 32 32 32 30 32 33 35 37 37 37 36 35 35 35 36 36 38
17 21 25 29 31 30 32 35 38 42 44 47 51 58 61 60 54 53 48 40 38 40 44 43 40 39 38 36 34 34 35 36 36 36 36 36 35 33 32 30 32 35 38 41 41 41 41 42 44 44 46 46 47 47
18 22 27 30 31 32 33 36 40 43 46 50 57 62 61 57 54 49 38 37 35 36 35 32 39 43 43 42 40 37 34 35 37 39 41 41 41 42 42 42 41 41 42 43 44 45 46 47 48 48 48 49 49 50
20 23 27 30 32 33 35 38 40 44 48 54 61 62 60 58 51 40 37 34 30 30 31 32 34 35 37 36 34 37 41 39 38 38 40 41 42 43 42 43 44 44 45 46 47 49 50 51 52 52 54 55 56 56
21 25 28 32 34 34 35 36 40 46 52 58 61 62 60 54 44 36 34 31 28 26 26 25 24 28 32 39 42 41 41 41 41 41 42 42 43 45 49 50 49 50 51 52 53 54 55 56 57 58 59 60 61 62
24 27 30 33 34 34 35 37 42 50 57 60 62 61 57 47 37 34 31 28 26 24 23 21 19 20 24 28 35 40 42 43 43 44 44 46 47 49 49 49 49 50 52 53 54 55 56 56 57 58 58 59 60 61
26 29 32 34 34 34 35 40 46 53 58 60 59 56 50 38 34 33 29 26 25 25 23 21 20 18 17 19 25 30 37 42 45 47 47 48 50 51 52 51 52 53 54 54 55 55 56 57 58 58 59 60 60 61
28 31 34 36 35 34 36 42 49 55 59 57 53 51 43 33 32 32 29 27 27 27 25 23 20 20 20 20 20 21 23 27 32 37 43 47 49 50 51 52 52 53 54 54 55 56 56 57 57 57 56 56 56 56
30 33 35 38 36 34 38 45 51 55 56 53 49 48 38 29 29 32 32 30 28 27 27 26 26 24 24 25 25 26 27 29 30 29 33 32 32 34 36 38 40 42 43 44 44 45 46 47 48 50 52 54 55 57
31 34 36 35 33 36 41 46 51 54 53 48 50 46 38 29 28 31 33 32 31 29 28 28 28 27 28 28 29 30 32 33 33 32 35 36 35 36 36 36 37 38 39 40 42 44 45 47 49 50 51 52 54 55
34 37 33 31 34 38 43 48 51 53 46 48 50 45 37 33 31 31 34 34 35 33 33 32 32 32 32 32 32 33 34 36 37 37 36 36 36 37 38 40 41 43 44 46 47 48 50 51 53 55 56 57 58 59
35 33 32 34 37 40 45 48 50 47 46 50 50 44 38 35 32 32 35 36 37 37 36 36 36 37 38 37 37 37 39 40 41 42 42 41 41 41 41 41 42 43 43 44 45 46 48 50 52 54 56 58 60 62
34 35 35 37 39 42 45 48 48 45 49 51 50 44 38 37 33 33 36 37 38 39 39 39 40 41 42 42 41 42 45 47 47 44 40 37 36 35 35 36 38 41 43 45 48 50 51 53 55 57 59 61 62 63
35 37 38 38 40 43 46 46 44 48 51 53 51 43 39 36 34 36 38 40 41 42 42 42 42 42 43 43 43 46 49 50 48 45 42 39 37 37 39 40 42 44 45 47 49 50 52 53 55 56 57 58 59 60
37 38 37 38 41 44 45 43 46 51 54 52 49 43 38 34 36 38 40 41 43 44 45 45 45 46 45 45 46 48 50 47 45 42 41 41 41 42 43 44 45 46 47 47 47 47 48 48 48 49 49 49 49 49
37 36 38 41 43 43 41 45 50 53 54 52 47 43 36 35 39 42 45 45 45 46 46 48 48 47 47 50 51 51 48 45 43 42 43 44 44 44 45 45 44 43 42 42 41 41 42 41 40 37 36 34 34 34
35 38 41 43 42 41 45 50 53 54 52 50 46 42 39 42 47 48 47 46 47 47 48 49 48 46 51 53 53 49 46 45 44 43 44 44 44 43 42 41 40 39 37 36 36 35 32 30 29 29 29 29 30 30
38 41 43 42 40 45 49 52 53 53 52 51 48 47 46 48 48 47 47 48 49 50 51 49 50 52 53 52 50 47 45 45 44 45 44 42 41 40 38 37 35 34 32 31 29 27 28 27 27 28 28 29 30 32
40 43 43 41 45 49 51 52 54 54 53 51 53 50 48 47 48 49 49 50 51 51 51 52 54 54 52 49 47 46 45 46 45 43 41 40 38 36 35 33 32 30 30 29 28 28 27 28 29 30 31 31 30 31
42 42 42 43 46 50 53 56 56 56 54 55 55 52 48 48 50 50 50 51 50 52 53 55 55 53 49 46 46 46 45 44 42 40 38 35 35 34 32 31 30 29 29 29 29 29 29 30 31 33 34 35 34 33
45 44 43 46 50 54 56 58 58 57 57 58 57 54 51 51 51 51 52 51 53 55 56 55 51 48 46 46 46 44 43 41 39 37 35 34 33 33 32 30 31 30 30 30 31 31 32 33 33 34 35 36 38 37
48 40 43 48 53 56 58 61 61 60 62 63 61 58 55 55 55 54 54 55 57 58 55 50 47 45 45 46 45 43 41 39 36 34 33 33 32 32 32 32 33 33 33 34 33 34 34 34 35 35 34 33 34 34
49 39 47 51 55 58 61 63 63 63 64 63 63 60 59 58 58 57 57 59 59 55 49 46 44 44 44 44 43 42 40 38 36 32 32 32 33 32 32 33 35 36 36 35 35 35 34 34 34 33 33 33 32 31
46 44 51 55 59 62 64 65 64 65 65 64 63 61 61 61 62 61 61 61 55 49 46 45 45 45 45 45 42 40 38 37 34 31 32 33 33 33 34 35 36 37 39 38 36 36 34 34 35 36 37 38 37 34
42 50 55 59 62 64 67 67 67 68 66 65 63 63 63 64 63 65 63 57 50 47 46 46 46 45 44 43 41 39 37 35 33 31 33 33 33 34 35 36 37 37 39 38 38 38 38 38 39 39 41 42 41 40
50 54 59 62 64 66 68 68 68 67 66 64 64 63 65 65 67 65 59 52 50 49 49 48 48 46 43 41 40 38 36 35 34 33 33 34 35 35 36 35 35 35 37 38 40 40 40 39 40 41 44 44 43 43
53 59 63 64 66 68 69 70 69 67 67 66 65 65 67 67 64 58 52 50 49 48 47 47 46 43 41 40 39 37 36 36 34 34 33 34 35 35 36 37 37 39 40 40 41 41 41 42 42 43 43 43 41 40
59 63 64 66 68 69 70 70 68 66 65 66 66 67 67 62 56 52 51 50 49 48 48 46 44 42 41 39 38 38 38 37 37 36 35 35 36 37 38 38 39 40 40 41 41 41 41 41 41 40 38 37 36 35
63 65 67 68 69 70 71 69 67 67 67 67 69 66 58 53 51 51 50 48 48 48 46 44 43 41 39 39 39 39 38 37 37 36 35 34 34 35 37 38 39 39 39 37 36 36 37 38 37 38 38 37 36 35
66 68 69 70 72 71 69 68 68 68 68 66 61 56 53 52 51 50 49 49 47 45 44 43 42 41 39 38 38 37 36 36 35 35 35 35 36 36 36 35 34 33 33 34 35 34 33 33 32 32 32 32 33 33
69 69 71 72 70 69 69 69 70 68 62 56 52 52 52 52 51 49 49 47 45 44 44 43 41 40 40 38 36 34 33 34 36 37 38 36 34 33 33 32 30 27 26 26 26 26 26 25 26 25 25 25 26 26
70 70 69 69 70 70 70 69 65 58 53 52 52 52 51 51 49 48 47 46 45 44 43 42 40 39 38 36 35 36 37 37 36 34 32 32 31 28 25 22 20 20 20 21 22 22 23 23 24 25 25 25 24 24
Wind_Direction
301 311 324 326 328 324 318 327 331 333 334 334 334 332 331 328 323 319 312 302 296 293 290 287 288 286 281 279 279 279 282 284 278 270 272 273 268 260 254 253 257 259 255 253 252 255 257 262 257 256 255 255 254 253
300 315 323 323 327 321 320 325 328 329 332 331 330 330 329 328 321 318 310 299 291 286 283 278 277 279 278 276 273 270 270 270 272 275 277 268 267 266 265 259 252 248 249 250 250 255 256 259 256 255 256 257 256 256
305 317 321 323 327 323 320 324 325 325 327 328 329 330 329 325 322 320 312 308 300 290 281 276 272 270 270 272 270 270 266 264 264 264 266 268 271 270 270 268 267 262 259 257 258 257 258 259 261 260 260 261 261 261
312 320 321 325 326 323 321 320 322 324 327 329 330 330 328 327 324 321 315 309 302 296 292 283 270 265 265 266 269 266 262 263 263 264 263 263 264 265 266 266 264 264 263 263 263 262 262 262 263 264 266 266 265 265
317 321 324 326 326 322 319 320 323 325 327 331 331 331 329 329 326 321 318 315 310 304 298 287 279 269 263 259 257 254 267 268 263 265 265 265 264 266 265 264 264 265 265 263 262 263 266 266 266 265 265 265 265 265
321 324 324 324 324 321 320 323 325 326 330 333 334 332 331 331 327 325 324 322 321 320 317 308 293 278 267 259 258 261 263 263 263 263 264 266 267 266 265 265 266 266 266 266 266 265 265 264 264 265 265 266 267 268
322 323 324 324 324 322 320 324 327 329 331 335 335 333 334 332 329 331 329 329 331 331 330 328 317 298 285 274 265 261 262 264 264 265 265 266 267 267 268 269 270 268 268 267 267 267 267 266 266 266 266 266 267 267
321 320 324 326 324 321 323 326 329 330 335 337 337 336 335 334 338 338 335 333 336 337 334 333 331 325 315 296 282 274 269 266 266 267 267 267 267 268 268 268 268 269 269 269 269 270 270 270 270 270 270 269 268 268
318 318 322 326 325 323 326 329 331 335 337 340 339 338 336 335 336 339 338 337 336 337 336 333 329 323 321 317 311 304 296 286 281 278 275 272 272 272 272 271 270 270 270 270 270 271 271 270 270 270 269 268 268 267
318 320 324 325 324 325 329 332 334 337 339 340 341 340 336 330 330 338 341 337 332 332 334 331 327 323 321 318 313 309 303 296 294 290 286 285 284 281 279 276 274 272 271 270 269 268 268 267 267 267 267 267 268 268
318 320 322 323 322 326 330 333 338 338 339 341 340 338 333 324 325 328 335 337 334 329 326 327 326 321 318 315 312 311 308 304 302 297 291 290 287 282 279 276 274 273 271 270 268 267 267 268 268 269 269 269 269 269
319 320 322 320 323 329 331 334 337 338 341 340 338 337 328 321 317 321 329 333 334 331 325 323 322 321 318 314 312 310 308 307 305 303 299 294 289 283 277 274 273 271 270 270 270 270 270 270 270 270 270 270 270 270
321 322 319 322 326 329 331 335 336 338 340 339 337 332 324 320 314 317 325 328 329 329 326 322 320 319 318 315 312 311 310 308 306 305 303 297 290 285 281 279 277 276 275 274 272 271 271 271 271 271 272 273 273 273
321 320 319 323 326 329 332 334 335 337 338 338 336 329 322 316 312 315 321 323 324 325 324 321 318 318 317 316 315 314 313 311 311 309 306 302 297 294 290 286 284 282 280 279 279 278 278 278 278 277 277 277 277 276
319 318 322 325 327 328 333 334 337 338 338 336 333 327 321 314 311 316 320 321 321 322 322 319 317 316 315 314 313 314 315 315 315 311 309 305 302 299 297 294 291 288 286 284 283 282 280 280 279 278 278 278 278 278
319 321 324 326 326 330 332 335 338 338 338 335 331 326 320 314 315 318 320 320 320 320 320 319 317 316 315 315 315 315 313 312 310 308 305 303 301 299 296 293 291 289 288 287 285 284 283 283 282 282 282 281 281 281
321 324 326 327 330 331 334 337 338 338 335 334 330 326 317 313 316 320 321 320 320 319 318 318 318 317 315 315 316 314 313 310 307 306 303 301 301 299 297 296 294 293 291 290 290 289 288 287 287 287 288 287 286 285
326 326 328 330 330 334 337 337 337 335 334 334 331 324 315 312 315 318 319 320 320 319 319 318 316 317 314 315 313 312 310 307 306 304 302 301 300 299 298 297 296 295 295 294 293 292 289 288 289 290 289 289 289 289
326 327 329 329 330 336 336 336 336 335 334 335 331 324 320 317 318 319 320 320 320 319 318 317 316 315 313 311 310 309 307 306 305 303 302 301 300 300 300 299 298 297 297 295 294 293 293 291 290 290 290 290 289 290
324 326 330 327 333 335 336 336 336 335 335 334 331 326 321 320 320 321 321 320 320 318 317 318 316 313 312 311 309 308 307 305 304 303 301 300 299 300 300 299 299 298 296 295 295 294 292 292 293 293 293 292 291 292
321 326 326 329 334 334 335 336 335 336 334 333 330 326 323 321 320 320 320 320 318 316 319 318 315 313 312 311 310 309 307 305 304 301 299 298 299 300 299 299 298 296 295 294 294 294 294 294 293 294 294 294 294 294
319 320 322 331 333 333 334 334 334 332 332 331 328 325 322 320 320 320 321 320 319 319 319 316 315 314 314 312 311 309 307 305 303 300 298 297 297 297 296 295 293 293 294 296 297 296 295 295 296 297 297 298 299 298
314 312 322 328 330 331 331 331 330 329 329 329 327 325 323 322 323 323 323 322 320 320 318 317 315 315 314 312 311 310 309 306 303 299 295 293 293 294 294 293 293 294 296 297 297 298 299 299 298 294 292 293 293 293
315 310 323 325 327 326 328 328 327 327 326 325 325 324 323 323 324 324 324 322 321 318 318 316 316 314 313 312 312 312 311 307 305 300 295 292 291 292 293 293 294 296 297 298 299 299 298 297 297 296 295 295 293 290
308 314 319 322 322 323 325 325 325 324 323 323 322 323 323 324 324 323 324 322 319 318 317 317 316 317 316 315 314 311 309 306 304 299 294 292 292 293 293 294 296 296 299 301 303 302 302 303 305 304 302 300 299 297
304 311 317 319 320 321 322 323 323 322 322 322 323 322 322 322 323 323 323 321 319 318 318 317 318 318 315 313 313 311 310 308 305 300 295 295 293 293 293 294 296 298 299 302 301 302 304 304 303 301 299 297 298 301
309 312 315 317 318 319 320 321 320 320 321 320 320 320 320 321 322 323 322 321 320 320 319 319 318 316 315 313 312 311 309 307 305 302 299 296 296 296 296 298 299 298 297 296 297 298 299 299 298 296 294 296 299 299
310 312 314 316 317 319 319 319 320 319 318 319 320 321 320 321 321 320 319 318 318 316 316 316 315 314 313 312 311 310 308 307 306 304 302 300 299 300 299 298 297 296 296 297 298 299 300 297 294 295 295 296 296 295
310 313 315 316 317 317 317 317 317 316 316 317 318 318 319 318 317 317 316 316 315 316 316 315 314 313 313 312 310 308 306 305 304 303 302 300 298 296 296 297 297 299 300 301 302 301 298 298 298 298 299 299 297 297
313 313 314 315 315 315 315 314 315 315 317 317 316 317 317 316 316 315 315 314 314 315 315 314 313 311 311 309 307 306 306 306 305 303 303 302 302 300 299 299 300 300 302 303 301 300 300 300 301 300 300 300 300 299
312 312 313 312 312 313 312 313 314 316 316 315 316 315 316 315 314 314 314 313 314 314 313 312 310 310 309 307 308 308 307 307 309 308 305 304 304 302 302 302 304 306 306 303 301 302 304 305 306 305 304 301 300 298
310 311 310 310 312 311 312 313 315 315 315 314 314 314 314 313 313 314 313 313 313 313 312 310 311 311 310 310 310 309 308 308 308 307 307 309 309 308 308 309 311 311 308 309 311 312 313 314 314 314 312 311 309 307
309 309 309 309 310 311 312 313 314 314 314 315 313 313 313 313 313 312 312 313 312 311 311 312 312 311 310 309 309 309 312 311 310 310 310 309 308 307 309 313 314 314 317 321 325 328 330 332 332 332 331 328 324 321